RYR52RY LFPG-LEBB

Flight info

Callsign RYR52RY
Flight time 1h 18m
Altitude 29000
Route AGOPA DCT ARKIP DCT ARMAL DCT ARTAX DCT BEBIX DCT LMG DCT UVELI DCT OSMOB DCT VAVIX/N0418F230 DCT BTZ DCT URUNA P181 SSN L176 CEGAM
Aircraft B38M/M-SDE1FGHILORVWXY/HB1

Departure

Time 2026-05-04 21:06
Airport Charles de Gaulle International Airport (LFPG)

Arrival

Time 2026-05-04 22:24
Airport Bilbao Airport (LEBB)
Time Latitude Longitude Altitude Speed Heading
2026-05-04 20:16 49.00663 2.57581 329 ft 0 kts 249°
2026-05-04 20:51 49.00664 2.57585 357 ft 1 kts 249°
2026-05-04 20:52 49.00670 2.57609 361 ft 3 kts 249°
2026-05-04 20:52 49.00677 2.57637 364 ft 3 kts 255°
2026-05-04 20:52 49.00679 2.57661 361 ft 3 kts 299°
2026-05-04 20:52 49.00673 2.57669 362 ft 2 kts 354°
2026-05-04 20:53 49.00666 2.57670 357 ft 2 kts 356°
2026-05-04 20:53 49.00648 2.57672 357 ft 2 kts 356°
2026-05-04 20:54 49.00646 2.57673 357 ft 1 kts 356°
2026-05-04 20:56 49.00672 2.57670 357 ft 8 kts 356°
2026-05-04 20:56 49.00734 2.57657 358 ft 10 kts 345°
2026-05-04 20:56 49.00795 2.57600 361 ft 11 kts 320°
2026-05-04 20:57 49.00861 2.57542 361 ft 12 kts 310°
2026-05-04 20:57 49.00871 2.57417 357 ft 13 kts 265°
2026-05-04 20:57 49.00861 2.57277 357 ft 14 kts 264°
2026-05-04 20:57 49.00853 2.57116 363 ft 16 kts 266°
2026-05-04 20:58 49.00845 2.56939 357 ft 17 kts 266°
2026-05-04 20:58 49.00834 2.56747 357 ft 19 kts 265°
2026-05-04 20:58 49.00823 2.56540 365 ft 21 kts 265°
2026-05-04 20:58 49.00811 2.56393 363 ft 21 kts 262°
2026-05-04 20:59 49.00828 2.56343 362 ft 1 kts 319°
2026-05-04 20:59 49.00824 2.56348 363 ft 0 kts 323°
2026-05-04 20:59 49.00817 2.56352 361 ft 5 kts 290°
2026-05-04 21:00 49.00807 2.56283 357 ft 7 kts 253°
2026-05-04 21:00 49.00798 2.56166 357 ft 12 kts 281°
2026-05-04 21:00 49.00797 2.56170 357 ft 0 kts 278°
2026-05-04 21:00 49.00796 2.56171 357 ft 1 kts 268°
2026-05-04 21:01 49.00790 2.56144 359 ft 7 kts 246°
2026-05-04 21:01 49.00780 2.56049 359 ft 7 kts 251°
2026-05-04 21:01 49.00765 2.55932 362 ft 17 kts 265°
2026-05-04 21:01 49.00747 2.55718 358 ft 22 kts 264°
2026-05-04 21:02 49.00729 2.55484 359 ft 23 kts 263°
2026-05-04 21:02 49.00702 2.55306 359 ft 15 kts 241°
2026-05-04 21:02 49.00613 2.55262 361 ft 15 kts 160°
2026-05-04 21:02 49.00505 2.55308 359 ft 17 kts 163°
2026-05-04 21:03 49.00389 2.55355 363 ft 18 kts 164°
2026-05-04 21:03 49.00266 2.55409 360 ft 19 kts 164°
2026-05-04 21:03 49.00133 2.55467 357 ft 20 kts 164°
2026-05-04 21:03 48.99995 2.55526 365 ft 22 kts 165°
2026-05-04 21:04 48.99865 2.55639 359 ft 22 kts 126°
2026-05-04 21:04 48.99804 2.55794 359 ft 14 kts 155°
2026-05-04 21:04 48.99706 2.55813 357 ft 15 kts 175°
2026-05-04 21:04 48.99612 2.55860 356 ft 12 kts 121°
2026-05-04 21:05 48.99605 2.55908 356 ft 1 kts 87°
2026-05-04 21:05 48.99605 2.55913 356 ft 0 kts 86°
2026-05-04 21:05 48.99605 2.55916 356 ft 1 kts 86°
2026-05-04 21:05 48.99605 2.55917 356 ft 0 kts 86°
2026-05-04 21:06 48.99605 2.55930 356 ft 7 kts 86°
2026-05-04 21:06 48.99637 2.56472 359 ft 96 kts 85°
2026-05-04 21:06 48.99712 2.57881 432 ft 159 kts 85°
2026-05-04 21:06 48.99792 2.59667 1177 ft 174 kts 85°
2026-05-04 21:07 48.99852 2.61515 2218 ft 180 kts 86°
2026-05-04 21:07 48.99917 2.63556 2638 ft 208 kts 85°
2026-05-04 21:07 49.00064 2.65866 3246 ft 226 kts 83°
2026-05-04 21:07 49.00278 2.68264 4209 ft 227 kts 80°
2026-05-04 21:08 49.00528 2.70640 5041 ft 239 kts 84°
2026-05-04 21:08 49.00640 2.73255 5732 ft 253 kts 87°
2026-05-04 21:08 49.00716 2.75918 6725 ft 254 kts 88°
2026-05-04 21:08 49.00770 2.78695 7399 ft 268 kts 92°
2026-05-04 21:09 49.00551 2.81552 8230 ft 273 kts 103°
2026-05-04 21:09 49.00147 2.84376 9241 ft 272 kts 102°
2026-05-04 21:09 48.99689 2.87174 10083 ft 279 kts 113°
2026-05-04 21:09 48.98533 2.89589 10514 ft 296 kts 142°
2026-05-04 21:10 48.96631 2.90835 11107 ft 306 kts 172°
2026-05-04 21:10 48.94480 2.90498 11590 ft 321 kts 200°
2026-05-04 21:10 48.92605 2.88751 12324 ft 326 kts 224°
2026-05-04 21:10 48.91184 2.85942 13136 ft 332 kts 237°
2026-05-04 21:11 48.89885 2.83026 13936 ft 336 kts 230°
2026-05-04 21:11 48.88228 2.80444 14416 ft 349 kts 219°
2026-05-04 21:11 48.86323 2.78172 15147 ft 348 kts 217°
2026-05-04 21:11 48.84419 2.75899 16192 ft 346 kts 218°
2026-05-04 21:12 48.82556 2.73498 16737 ft 353 kts 221°
2026-05-04 21:12 48.80729 2.70996 17533 ft 355 kts 222°
2026-05-04 21:12 48.78895 2.68466 18207 ft 359 kts 222°
2026-05-04 21:12 48.77051 2.65906 18837 ft 361 kts 222°
2026-05-04 21:13 48.75235 2.63381 19435 ft 364 kts 222°
2026-05-04 21:13 48.73337 2.60738 20065 ft 366 kts 222°
2026-05-04 21:13 48.71452 2.58111 20561 ft 372 kts 222°
2026-05-04 21:13 48.69560 2.55485 21159 ft 374 kts 222°
2026-05-04 21:14 48.67646 2.52826 21746 ft 377 kts 221°
2026-05-04 21:14 48.65709 2.50140 22333 ft 379 kts 221°
2026-05-04 21:14 48.63761 2.47438 22916 ft 382 kts 221°
2026-05-04 21:14 48.61796 2.44719 23495 ft 384 kts 221°
2026-05-04 21:15 48.59823 2.41990 24023 ft 384 kts 221°
2026-05-04 21:15 48.57847 2.39258 24511 ft 386 kts 221°
2026-05-04 21:15 48.55875 2.36535 24999 ft 387 kts 221°
2026-05-04 21:15 48.53884 2.33788 25465 ft 388 kts 221°
2026-05-04 21:16 48.51882 2.31029 25936 ft 390 kts 221°
2026-05-04 21:16 48.49876 2.28266 26400 ft 391 kts 221°
2026-05-04 21:16 48.47887 2.25529 26842 ft 393 kts 220°
2026-05-04 21:16 48.45864 2.22748 27279 ft 394 kts 220°
2026-05-04 21:17 48.43830 2.19956 27709 ft 396 kts 220°
2026-05-04 21:17 48.41803 2.17176 28139 ft 398 kts 220°
2026-05-04 21:17 48.39791 2.14421 28580 ft 399 kts 220°
2026-05-04 21:17 48.37711 2.11572 29008 ft 400 kts 220°
2026-05-04 21:18 48.35641 2.08743 29419 ft 402 kts 220°
2026-05-04 21:18 48.33565 2.05906 29805 ft 404 kts 220°
2026-05-04 21:18 48.31428 2.03181 30145 ft 403 kts 212°
2026-05-04 21:18 48.28900 2.01417 30518 ft 401 kts 195°
2026-05-04 21:19 48.26135 2.00834 30844 ft 403 kts 182°
2026-05-04 21:19 48.23329 2.00739 31151 ft 405 kts 182°
2026-05-04 21:19 48.20508 2.00719 31475 ft 406 kts 181°
2026-05-04 21:19 48.17684 2.00748 31869 ft 405 kts 181°
2026-05-04 21:20 48.14913 2.00800 32213 ft 406 kts 181°
2026-05-04 21:20 48.12087 2.00869 32533 ft 407 kts 181°
2026-05-04 21:20 48.09246 2.00949 32851 ft 408 kts 181°
2026-05-04 21:20 48.06399 2.01117 33014 ft 413 kts 180°
2026-05-04 21:21 48.03529 2.01293 33401 ft 412 kts 180°
2026-05-04 21:21 48.00672 2.01463 33838 ft 410 kts 181°
2026-05-04 21:21 47.97828 2.01632 34219 ft 408 kts 181°
2026-05-04 21:21 47.94989 2.01798 34474 ft 409 kts 180°
2026-05-04 21:22 47.92131 2.01965 34683 ft 411 kts 180°
2026-05-04 21:22 47.89284 2.02131 34886 ft 413 kts 180°
2026-05-04 21:22 47.83516 2.02467 34936 ft 414 kts 180°
2026-05-04 21:23 47.77756 2.02802 34911 ft 413 kts 180°
2026-05-04 21:23 47.72053 2.03133 34910 ft 413 kts 180°
2026-05-04 21:24 47.66308 2.03465 34916 ft 413 kts 180°
2026-05-04 21:24 47.60580 2.03795 34911 ft 413 kts 180°
2026-05-04 21:25 47.54836 2.04124 34912 ft 413 kts 180°
2026-05-04 21:25 47.49087 2.04452 34910 ft 413 kts 180°
2026-05-04 21:26 47.43385 2.04777 34910 ft 413 kts 180°
2026-05-04 21:26 47.37656 2.05103 34910 ft 413 kts 180°
2026-05-04 21:27 47.31970 2.04730 34918 ft 408 kts 192°
2026-05-04 21:27 47.26350 2.03331 34913 ft 409 kts 191°
2026-05-04 21:28 47.20734 2.01921 34910 ft 410 kts 191°
2026-05-04 21:28 47.15130 2.00507 34911 ft 410 kts 191°
2026-05-04 21:29 47.09504 1.99089 34903 ft 409 kts 191°
2026-05-04 21:29 47.03884 1.97675 34902 ft 409 kts 191°
2026-05-04 21:30 46.98270 1.96266 34903 ft 409 kts 191°
2026-05-04 21:30 46.92692 1.94870 34903 ft 409 kts 191°
2026-05-04 21:31 46.84291 1.92771 34905 ft 409 kts 191°
2026-05-04 21:32 46.78666 1.91370 34904 ft 409 kts 190°
2026-05-04 21:32 46.73051 1.89975 34901 ft 409 kts 190°
2026-05-04 21:33 46.67430 1.88580 34908 ft 409 kts 190°
2026-05-04 21:33 46.61826 1.87193 34908 ft 409 kts 190°
2026-05-04 21:34 46.56240 1.85814 34904 ft 409 kts 190°
2026-05-04 21:34 46.50630 1.84431 34904 ft 409 kts 190°
2026-05-04 21:35 46.45016 1.83050 34906 ft 409 kts 190°
2026-05-04 21:35 46.39407 1.81673 34914 ft 409 kts 190°
2026-05-04 21:36 46.33791 1.80297 34907 ft 409 kts 190°
2026-05-04 21:36 46.28187 1.78894 34910 ft 409 kts 194°
2026-05-04 21:36 46.25550 1.77395 34902 ft 408 kts 210°
2026-05-04 21:37 46.23270 1.74940 34928 ft 411 kts 217°
2026-05-04 21:37 46.18864 1.69647 34917 ft 412 kts 218°
2026-05-04 21:38 46.14547 1.64319 34918 ft 412 kts 218°
2026-05-04 21:38 46.10211 1.58926 34924 ft 411 kts 218°
2026-05-04 21:39 46.05856 1.53514 34934 ft 415 kts 218°
2026-05-04 21:39 46.01474 1.48081 34929 ft 415 kts 218°
2026-05-04 21:40 45.97141 1.42719 34938 ft 415 kts 218°
2026-05-04 21:40 45.95095 1.39687 34900 ft 420 kts 231°
2026-05-04 21:40 45.93657 1.36078 34949 ft 425 kts 237°
2026-05-04 21:41 45.90888 1.28534 34941 ft 426 kts 238°
2026-05-04 21:41 45.88169 1.20953 34937 ft 426 kts 238°
2026-05-04 21:42 45.85465 1.13379 34937 ft 429 kts 238°
2026-05-04 21:42 45.82735 1.05753 34937 ft 429 kts 237°
2026-05-04 21:42 45.81033 1.02280 34923 ft 420 kts 221°
2026-05-04 21:43 45.78888 0.99538 34941 ft 419 kts 218°
2026-05-04 21:43 45.74479 0.94074 34934 ft 420 kts 218°
2026-05-04 21:44 45.70004 0.88678 34944 ft 420 kts 217°
2026-05-04 21:44 45.65531 0.83334 34943 ft 420 kts 217°
2026-05-04 21:45 45.61036 0.77980 34976 ft 420 kts 217°
2026-05-04 21:45 45.56557 0.72656 34955 ft 422 kts 218°
2026-05-04 21:46 45.52043 0.67303 34949 ft 422 kts 218°
2026-05-04 21:46 45.47533 0.61966 34960 ft 422 kts 218°
2026-05-04 21:47 45.43746 0.57494 34961 ft 422 kts 218°
2026-05-04 21:47 45.39219 0.52157 34962 ft 422 kts 218°
2026-05-04 21:48 45.34690 0.46831 34962 ft 423 kts 218°
2026-05-04 21:48 45.30173 0.41529 34967 ft 422 kts 218°
2026-05-04 21:49 45.25633 0.36212 34980 ft 424 kts 218°
2026-05-04 21:49 45.21111 0.30928 34966 ft 425 kts 218°
2026-05-04 21:50 45.16540 0.25597 34964 ft 425 kts 218°
2026-05-04 21:50 45.11970 0.20279 34973 ft 425 kts 218°
2026-05-04 21:51 45.07411 0.14985 34978 ft 425 kts 218°
2026-05-04 21:51 45.02838 0.09686 34980 ft 425 kts 218°
2026-05-04 21:52 44.98262 0.04394 34973 ft 425 kts 218°
2026-05-04 21:52 44.93718 -0.00847 35000 ft 424 kts 218°
2026-05-04 21:53 44.89150 -0.06107 34990 ft 425 kts 218°
2026-05-04 21:53 44.84567 -0.11372 34986 ft 425 kts 218°
2026-05-04 21:54 44.79978 -0.16633 34983 ft 425 kts 218°
2026-05-04 21:54 44.75398 -0.21874 34985 ft 425 kts 218°
2026-05-04 21:55 44.70844 -0.27075 34987 ft 425 kts 218°
2026-05-04 21:55 44.66253 -0.32308 34993 ft 425 kts 218°
2026-05-04 21:56 44.61429 -0.37057 34995 ft 424 kts 213°
2026-05-04 21:56 44.56564 -0.41730 34996 ft 423 kts 214°
2026-05-04 21:57 44.51730 -0.46399 35000 ft 423 kts 214°
2026-05-04 21:57 44.46877 -0.51081 34999 ft 423 kts 214°
2026-05-04 21:58 44.42027 -0.55751 35000 ft 423 kts 214°
2026-05-04 21:58 44.37213 -0.60376 35000 ft 421 kts 214°
2026-05-04 21:59 44.32385 -0.65006 35002 ft 422 kts 214°
2026-05-04 21:59 44.27569 -0.69675 35004 ft 422 kts 216°
2026-05-04 22:00 44.22836 -0.74542 35008 ft 422 kts 216°
2026-05-04 22:00 44.18103 -0.79370 35018 ft 422 kts 216°
2026-05-04 22:01 44.13354 -0.84202 35016 ft 422 kts 216°
2026-05-04 22:01 44.08613 -0.89015 35012 ft 423 kts 216°
2026-05-04 22:02 44.03890 -0.93800 35019 ft 423 kts 216°
2026-05-04 22:02 43.99141 -0.98602 35008 ft 422 kts 216°
2026-05-04 22:03 43.94391 -1.03395 35017 ft 422 kts 216°
2026-05-04 22:03 43.89648 -1.08171 35023 ft 422 kts 216°
2026-05-04 22:04 43.84888 -1.12955 35019 ft 422 kts 216°
2026-05-04 22:04 43.80119 -1.17738 35020 ft 424 kts 216°
2026-05-04 22:05 43.75338 -1.22523 35023 ft 424 kts 216°
2026-05-04 22:05 43.70566 -1.27291 35021 ft 423 kts 216°
2026-05-04 22:06 43.65784 -1.32057 34023 ft 430 kts 216°
2026-05-04 22:06 43.63471 -1.34361 33322 ft 421 kts 216°
2026-05-04 22:06 43.61100 -1.36720 32157 ft 419 kts 216°
2026-05-04 22:06 43.58747 -1.39058 31128 ft 415 kts 216°
2026-05-04 22:07 43.56426 -1.41360 30310 ft 406 kts 216°
2026-05-04 22:07 43.54165 -1.43603 29526 ft 397 kts 216°
2026-05-04 22:07 43.51894 -1.45853 28620 ft 408 kts 216°
2026-05-04 22:07 43.49565 -1.48160 27843 ft 419 kts 216°
2026-05-04 22:08 43.47249 -1.50633 27163 ft 425 kts 224°
2026-05-04 22:08 43.45422 -1.53810 26493 ft 425 kts 234°
2026-05-04 22:08 43.43748 -1.57171 25924 ft 424 kts 233°
2026-05-04 22:08 43.42096 -1.60509 25270 ft 421 kts 234°
2026-05-04 22:09 43.40467 -1.63833 24643 ft 417 kts 234°
2026-05-04 22:09 43.38855 -1.67140 24058 ft 414 kts 234°
2026-05-04 22:09 43.37282 -1.70370 23409 ft 412 kts 234°
2026-05-04 22:09 43.35703 -1.73615 22711 ft 408 kts 234°
2026-05-04 22:10 43.34132 -1.76848 21964 ft 404 kts 234°
2026-05-04 22:10 43.32576 -1.80048 21393 ft 402 kts 234°
2026-05-04 22:10 43.30949 -1.83139 20776 ft 397 kts 226°
2026-05-04 22:10 43.28926 -1.85721 20179 ft 394 kts 222°
2026-05-04 22:11 43.26910 -1.88267 19619 ft 392 kts 222°
2026-05-04 22:11 43.24902 -1.90783 19046 ft 390 kts 222°
2026-05-04 22:11 43.22901 -1.93279 18494 ft 386 kts 222°
2026-05-04 22:11 43.20928 -1.95734 17853 ft 383 kts 222°
2026-05-04 22:12 43.18989 -1.98143 17225 ft 380 kts 222°
2026-05-04 22:12 43.17088 -2.00503 16258 ft 374 kts 222°
2026-05-04 22:12 43.15411 -2.02582 15460 ft 369 kts 223°
2026-05-04 22:12 43.13498 -2.04952 14639 ft 363 kts 223°
2026-05-04 22:13 43.11704 -2.07173 14127 ft 351 kts 223°
2026-05-04 22:13 43.09924 -2.09376 13623 ft 339 kts 223°
2026-05-04 22:13 43.08214 -2.11491 13108 ft 328 kts 223°
2026-05-04 22:13 43.06547 -2.13552 12624 ft 318 kts 223°
2026-05-04 22:14 43.04928 -2.15552 12170 ft 308 kts 223°
2026-05-04 22:14 43.03362 -2.17485 11740 ft 299 kts 223°
2026-05-04 22:14 43.01872 -2.19334 11344 ft 290 kts 225°
2026-05-04 22:14 43.00762 -2.21540 10950 ft 279 kts 250°
2026-05-04 22:15 43.00482 -2.24081 10602 ft 270 kts 275°
2026-05-04 22:15 43.00982 -2.26493 10287 ft 261 kts 297°
2026-05-04 22:15 43.02017 -2.28432 10067 ft 252 kts 309°
2026-05-04 22:15 43.03205 -2.30295 9848 ft 263 kts 310°
2026-05-04 22:16 43.04446 -2.32173 9552 ft 269 kts 311°
2026-05-04 22:16 43.05711 -2.34044 9255 ft 271 kts 312°
2026-05-04 22:16 43.07000 -2.35928 8956 ft 271 kts 313°
2026-05-04 22:16 43.08289 -2.37797 8671 ft 270 kts 312°
2026-05-04 22:17 43.09575 -2.39651 8335 ft 268 kts 313°
2026-05-04 22:17 43.10858 -2.41497 8039 ft 266 kts 313°
2026-05-04 22:17 43.12134 -2.43330 7762 ft 266 kts 313°
2026-05-04 22:17 43.13236 -2.45356 7454 ft 264 kts 297°
2026-05-04 22:18 43.14054 -2.47597 7168 ft 263 kts 297°
2026-05-04 22:18 43.14873 -2.49784 7014 ft 251 kts 297°
2026-05-04 22:18 43.15643 -2.51818 6871 ft 235 kts 297°
2026-05-04 22:18 43.16367 -2.53785 6607 ft 228 kts 297°
2026-05-04 22:19 43.17078 -2.55716 6243 ft 228 kts 297°
2026-05-04 22:19 43.17789 -2.57642 5893 ft 230 kts 298°
2026-05-04 22:19 43.18532 -2.59620 5526 ft 232 kts 298°
2026-05-04 22:19 43.19262 -2.61576 5192 ft 234 kts 298°
2026-05-04 22:20 43.20003 -2.63577 4831 ft 237 kts 298°
2026-05-04 22:20 43.20749 -2.65598 4469 ft 239 kts 298°
2026-05-04 22:20 43.21494 -2.67622 4190 ft 237 kts 298°
2026-05-04 22:20 43.22238 -2.69640 3869 ft 238 kts 298°
2026-05-04 22:21 43.22972 -2.71639 3587 ft 232 kts 297°
2026-05-04 22:21 43.23679 -2.73561 3222 ft 218 kts 297°
2026-05-04 22:21 43.24339 -2.75357 2884 ft 203 kts 297°
2026-05-04 22:21 43.24944 -2.77005 2566 ft 186 kts 297°
2026-05-04 22:22 43.25493 -2.78497 2326 ft 165 kts 297°
2026-05-04 22:22 43.25983 -2.79831 2069 ft 153 kts 297°
2026-05-04 22:22 43.26452 -2.81109 1820 ft 153 kts 297°
2026-05-04 22:22 43.26930 -2.82402 1558 ft 153 kts 296°
2026-05-04 22:23 43.27401 -2.83696 1376 ft 153 kts 296°
2026-05-04 22:23 43.27883 -2.85010 1098 ft 152 kts 296°
2026-05-04 22:23 43.28353 -2.86279 884 ft 153 kts 296°
2026-05-04 22:23 43.28829 -2.87573 658 ft 151 kts 296°
2026-05-04 22:24 43.29284 -2.88835 415 ft 151 kts 296°
2026-05-04 22:24 43.29754 -2.90091 176 ft 150 kts 296°
2026-05-04 22:24 43.30186 -2.91269 127 ft 112 kts 296°
2026-05-04 22:24 43.30454 -2.91927 129 ft 46 kts 322°
2026-05-04 22:25 43.30593 -2.92042 134 ft 17 kts 349°
2026-05-04 22:25 43.30632 -2.91978 134 ft 11 kts 106°
2026-05-04 22:25 43.30595 -2.91878 134 ft 13 kts 116°
2026-05-04 22:25 43.30551 -2.91755 134 ft 16 kts 116°
2026-05-04 22:26 43.30499 -2.91613 135 ft 18 kts 117°
2026-05-04 22:26 43.30439 -2.91454 135 ft 20 kts 117°
2026-05-04 22:26 43.30377 -2.91281 135 ft 22 kts 116°
2026-05-04 22:26 43.30308 -2.91075 134 ft 20 kts 95°
2026-05-04 22:27 43.30379 -2.90989 135 ft 15 kts 21°
2026-05-04 22:27 43.30414 -2.90882 135 ft 10 kts 91°
2026-05-04 22:27 43.30406 -2.90786 135 ft 11 kts 111°
2026-05-04 22:27 43.30374 -2.90685 135 ft 5 kts 82°
2026-05-04 22:28 43.30387 -2.90666 135 ft 4 kts 40°
2026-05-04 22:28 43.30410 -2.90647 135 ft 3 kts 28°
2026-05-04 22:28 43.30418 -2.90641 135 ft 1 kts 28°
2026-05-04 22:28 43.30425 -2.90636 135 ft 0 kts 27°